EW4650 Weather Reports


Display with metric or nautical units.
time (UTC)temp
F
wind
direction
speed
MPH
gust
MPH
rain 1hr
in
rain 24hr
in
rain mn
in
humidity
%
barometer
mb
20260509152602 71 195 5.0 10.0 0.00 0.00 0.00 100 1010.2
20260509152058 70 188 5.0 9.0 0.00 0.00 0.00 100 1010.2
20260509151557 70 182 4.0 10.0 0.00 0.00 0.00 100 1010.2
20260509151055 70 194 6.0 10.0 0.00 0.00 0.00 100 1010.2
20260509150556 69 191 3.0 6.0 0.00 0.00 0.00 100 1010.2
20260509150055 69 232 1.0 2.0 0.00 0.00 0.00 100 1010.3
20260509145555 69 165 0.0 4.0 0.00 0.00 0.00 100 1010.2
20260509145056 69 245 2.0 4.0 0.00 0.00 0.00 100 1010.2
20260509144559 69 190 2.0 3.0 0.00 0.00 0.00 100 1010.2
20260509144053 69 92 1.0 2.0 0.00 0.00 0.00 100 1010.2
20260509143553 69 46 0.0 3.0 0.00 0.00 0.00 100 1010.3
20260509143055 69 18 1.0 4.0 0.00 0.00 0.00 100 1010.3
20260509142551 69 350 1.0 5.0 0.00 0.00 0.00 100 1010.3
20260509142051 68 9 3.0 5.0 0.00 0.00 0.00 100 1010.5
20260509141551 68 17 2.0 3.0 0.00 0.00 0.00 100 1010.5
20260509141054 68 73 1.0 5.0 0.00 0.00 0.00 100 1010.4
20260509140550 68 73 1.0 5.0 0.00 0.00 0.00 100 1010.2
20260509135550 68 76 1.0 5.0 0.00 0.01 0.00 100 1010.1
20260509135050 68 53 2.0 8.0 0.00 0.01 0.00 100 1010.1
20260509134549 68 74 5.0 8.0 0.00 0.01 0.00 100 1010.3
20260509134049 68 49 2.0 4.0 0.00 0.01 0.00 100 1010.2
20260509133547 68 95 1.0 6.0 0.00 0.01 0.00 100 1010.1
20260509133047 68 74 1.0 7.0 0.00 0.01 0.00 100 1010.2
20260509132547 68 65 4.0 9.0 0.00 0.01 0.00 100 1010.2
20260509132045 68 51 5.0 9.0 0.00 0.01 0.00 100 1010.3
20260509131546 68 55 4.0 7.0 0.00 0.01 0.00 100 1010.2
20260509131045 68 54 4.0 7.0 0.00 0.01 0.00 100 1010.1
20260509130545 68 59 3.0 5.0 0.00 0.01 0.00 100 1010.2
20260509130045 68 72 2.0 8.0 0.00 0.01 0.00 100 1010.4
20260509125544 68 80 4.0 7.0 0.00 0.01 0.00 100 1010.3
20260509125044 68 81 4.0 9.0 0.00 0.01 0.00 100 1010.2
20260509124541 67 59 4.0 12.0 0.00 0.01 0.00 100 1010.1
20260509124039 67 64 6.0 13.0 0.00 0.01 0.00 100 1010.1
20260509123541 67 46 9.0 12.0 0.00 0.01 0.00 100 1010.2
20260509123038 67 60 8.0 12.0 0.00 0.01 0.00 100 1010.2
20260509122538 67 48 8.0 11.0 0.00 0.01 0.00 100 1010.2
20260509122037 67 41 8.0 12.0 0.00 0.01 0.00 100 1010.3
20260509121540 67 57 7.0 12.0 0.00 0.01 0.00 100 1010.1
20260509121036 67 60 5.0 14.0 0.00 0.01 0.00 100 1010.1
20260509120536 68 33 10.0 14.0 0.00 0.01 0.00 100 1010.1
20260509120136 68 56 8.0 12.0 0.00 0.01 0.00 100 1010.1
20260509115535 68 43 8.0 11.0 0.00 0.01 0.00 100 1010.1
20260509115034 68 44 5.0 13.0 0.00 0.01 0.00 100 1010.1
20260509114534 68 30 9.0 13.0 0.00 0.01 0.00 100 1010.0
20260509114032 68 52 8.0 11.0 0.00 0.01 0.00 100 1009.9
20260509113531 68 24 6.0 9.0 0.00 0.01 0.00 100 1009.9
20260509113031 68 38 5.0 9.0 0.00 0.01 0.00 100 1009.6
20260509112530 68 32 4.0 6.0 0.00 0.01 0.00 100 1009.4
20260509112031 68 65 3.0 5.0 0.00 0.01 0.00 100 1009.3
20260509111531 67 85 3.0 6.0 0.00 0.01 0.00 100 1009.2
20260509111030 68 78 4.0 7.0 0.00 0.01 0.00 100 1009.2
20260509110531 68 75 5.0 9.0 0.00 0.01 0.00 100 1009.1
20260509110030 68 82 6.0 9.0 0.00 0.01 0.00 100 1009.0
20260509105531 68 67 4.0 6.0 0.00 0.01 0.00 100 1008.9
20260509105030 68 76 4.0 7.0 0.00 0.01 0.00 100 1008.9
20260509104533 68 73 4.0 7.0 0.00 0.01 0.00 100 1008.9
20260509104028 68 90 2.0 4.0 0.00 0.01 0.00 100 1008.9
20260509103528 68 102 2.0 6.0 0.00 0.01 0.00 100 1008.9
20260509103029 67 119 3.0 7.0 0.00 0.01 0.00 100 1008.9
20260509102528 67 116 2.0 6.0 0.00 0.01 0.00 100 1008.9
20260509102028 67 113 2.0 6.0 0.00 0.01 0.00 100 1008.9
20260509101537 67 105 2.0 5.0 0.00 0.01 0.00 100 1008.9
20260509101031 67 100 4.0 6.0 0.00 0.01 0.00 100 1008.7
20260509100527 67 82 3.0 8.0 0.00 0.01 0.00 100 1008.8
20260509100027 67 82 4.0 7.0 0.00 0.01 0.00 99 1008.6
20260509095528 67 64 5.0 7.0 0.00 0.01 0.00 99 1008.5
20260509095026 67 59 5.0 6.0 0.00 0.01 0.00 99 1008.5
20260509094529 67 69 4.0 6.0 0.00 0.01 0.00 99 1008.5
20260509094026 67 77 3.0 5.0 0.00 0.01 0.00 99 1008.4
20260509093526 67 53 3.0 4.0 0.00 0.01 0.00 99 1008.5
20260509093025 67 50 3.0 4.0 0.00 0.01 0.00 99 1008.5
20260509092525 67 52 2.0 4.0 0.00 0.01 0.00 99 1008.4
20260509092025 67 45 2.0 5.0 0.00 0.01 0.00 99 1008.4
20260509091529 67 28 3.0 5.0 0.00 0.01 0.00 99 1008.3
20260509091026 67 27 3.0 4.0 0.00 0.01 0.00 99 1008.3
20260509090524 67 17 0.0 4.0 0.00 0.01 0.00 99 1008.2
20260509090023 67 17 1.0 4.0 0.00 0.01 0.00 99 1008.3
20260509085523 67 16 3.0 4.0 0.00 0.01 0.00 99 1008.1
20260509085023 67 15 2.0 3.0 0.00 0.01 0.00 99 1008.1
20260509084528 67 38 1.0 2.0 0.00 0.01 0.00 99 1008.2
20260509084021 67 138 1.0 2.0 0.00 0.01 0.00 99 1008.4
20260509083519 67 138 0.0 2.0 0.00 0.01 0.00 99 1008.6
20260509083019 67 138 0.0 2.0 0.00 0.01 0.00 99 1008.7
20260509082518 67 138 0.0 2.0 0.00 0.01 0.00 99 1008.7
20260509082020 67 138 0.0 2.0 0.00 0.01 0.00 99 1008.9
20260509081518 67 138 0.0 2.0 0.00 0.01 0.00 99 1008.8
20260509081016 67 138 0.0 1.0 0.00 0.01 0.00 99 1008.9
20260509080516 67 138 0.0 1.0 0.00 0.01 0.00 99 1009.0
20260509080017 67 138 0.0 0.0 0.00 0.01 0.00 99 1009.0
20260509075516 67 138 0.0 1.0 0.00 0.01 0.00 99 1009.1
20260509075019 67 138 1.0 2.0 0.00 0.01 0.00 99 1009.2
20260509074517 67 138 0.0 2.0 0.00 0.01 0.00 99 1009.2
20260509074015 67 138 1.0 2.0 0.00 0.01 0.00 99 1009.3
20260509073519 67 138 0.0 1.0 0.00 0.01 0.00 99 1009.3
20260509073025 67 139 0.0 2.0 0.00 0.01 0.00 99 1009.3
20260509072518 67 139 0.0 2.0 0.00 0.01 0.00 99 1009.4
20260509072018 67 139 1.0 2.0 0.00 0.01 0.00 99 1009.4
20260509071514 67 139 0.0 2.0 0.00 0.01 0.00 99 1009.1
20260509071014 67 139 0.0 2.0 0.00 0.01 0.00 99 1009.0
20260509070514 67 139 0.0 2.0 0.00 0.01 0.00 99 1009.0
20260509070014 67 139 0.0 4.0 0.00 0.01 0.00 99 1008.9
20260509065512 67 139 1.0 4.0 0.00 0.01 0.00 99 1009.0
20260509065011 66 155 1.0 3.0 0.00 0.01 0.00 99 1009.1
20260509064511 66 131 1.0 3.0 0.00 0.01 0.00 98 1009.2
20260509064015 66 144 1.0 1.0 0.00 0.01 0.00 98 1009.2
20260509063509 66 144 0.0 1.0 0.00 0.01 0.00 98 1009.2
20260509063013 66 144 0.0 2.0 0.00 0.01 0.00 98 1009.2
20260509062510 66 144 0.0 3.0 0.00 0.01 0.00 98 1009.2
20260509062010 66 144 1.0 3.0 0.00 0.01 0.00 98 1009.2
20260509061509 66 142 1.0 3.0 0.00 0.01 0.00 98 1009.3
20260509061010 66 149 1.0 2.0 0.00 0.01 0.00 98 1009.1
20260509060508 66 144 1.0 2.0 0.00 0.01 0.00 98 1009.2
20260509060017 66 171 1.0 3.0 0.00 0.01 0.00 98 1009.2
20260509055511 66 163 1.0 4.0 0.00 0.01 0.00 98 1009.3
20260509055006 66 180 1.0 4.0 0.00 0.01 0.00 98 1009.5
20260509054507 66 180 2.0 4.0 0.00 0.01 0.00 98 1009.4
20260509054005 66 180 1.0 3.0 0.00 0.01 0.00 98 1009.5
20260509053506 66 223 1.0 3.0 0.00 0.01 0.00 98 1009.7
20260509053005 66 281 1.0 3.0 0.00 0.01 0.00 98 1009.7
20260509052504 66 215 1.0 4.0 0.00 0.01 0.00 98 1009.8
20260509052004 66 190 2.0 6.0 0.00 0.01 0.00 98 1009.6
20260509051505 66 175 2.0 6.0 0.00 0.01 0.00 98 1009.6
20260509051004 66 201 2.0 6.0 0.00 0.01 0.00 98 1009.7
20260509050503 66 180 3.0 7.0 0.00 0.01 0.00 98 1009.7
20260509050003 66 163 3.0 7.0 0.00 0.01 0.00 98 1009.6
20260509045501 66 210 4.0 8.0 0.00 0.01 0.01 98 1009.7
20260509045001 66 194 4.0 9.0 0.00 0.01 0.01 98 1009.7
20260509044502 66 205 5.0 9.0 0.00 0.01 0.01 98 1009.8
20260509044101 66 221 5.0 8.0 0.00 0.01 0.01 98 1009.8
20260509043600 66 204 5.0 8.0 0.00 0.01 0.01 98 1009.7
20260509043100 66 202 5.0 8.0 0.00 0.01 0.01 97 1009.8
20260509042603 66 196 4.0 6.0 0.00 0.01 0.01 97 1009.7
20260509042100 66 213 2.0 5.0 0.00 0.01 0.01 97 1009.7
20260509041600 66 192 2.0 7.0 0.00 0.01 0.01 97 1009.8
20260509041100 66 188 3.0 7.0 0.00 0.01 0.01 97 1009.6
20260509041005 66 217 3.0 7.0 0.00 0.01 0.01 97 1009.6
20260509040559 67 207 3.0 9.0 0.00 0.01 0.01 97 1009.5
20260509040127 67 186 6.0 10.0 0.00 0.01 0.01 97 1009.3
20260509035559 67 182 6.0 10.0 0.00 0.01 0.01 97 1009.4
20260509035059 67 178 4.0 8.0 0.00 0.01 0.01 97 1009.4
20260509034602 66 148 3.0 7.0 0.00 0.01 0.01 97 1009.1
20260509034058 66 146 3.0 5.0 0.00 0.01 0.01 97 1008.8
20260509033558 66 159 4.0 6.0 0.00 0.01 0.01 97 1008.8
20260509033058 66 113 2.0 6.0 0.00 0.01 0.01 97 1008.6
20260509032559 67 100 3.0 6.0 0.00 0.01 0.01 97 1008.5
20260509032057 67 113 3.0 7.0 0.00 0.01 0.01 97 1008.4
20260509031600 67 127 3.0 7.0 0.00 0.01 0.01 97 1008.5
20260509031057 66 123 3.0 4.0 0.00 0.01 0.01 96 1008.5
20260509030557 67 93 2.0 4.0 0.00 0.01 0.01 96 1008.4
20260509030059 66 117 2.0 4.0 0.00 0.01 0.01 96 1008.4
20260509025556 66 117 2.0 4.0 0.00 0.01 0.01 96 1008.3
20260509025056 66 96 2.0 6.0 0.00 0.01 0.01 95 1008.3
20260509024558 67 106 2.0 6.0 0.00 0.01 0.01 96 1008.4
20260509024056 67 126 4.0 6.0 0.00 0.01 0.01 96 1008.2
20260509023559 67 146 2.0 6.0 0.00 0.01 0.01 96 1008.2
20260509023055 67 142 3.0 6.0 0.00 0.01 0.01 96 1008.1
20260509022559 67 136 3.0 4.0 0.00 0.01 0.01 95 1008.1
20260509022055 67 118 1.0 3.0 0.00 0.01 0.01 95 1008.1
20260509021556 67 117 2.0 3.0 0.00 0.01 0.01 95 1008.1
20260509021057 67 117 1.0 2.0 0.00 0.01 0.01 94 1008.1
20260509020554 67 111 1.0 3.0 0.00 0.01 0.01 94 1008.1
20260509020055 67 111 2.0 3.0 0.00 0.01 0.01 94 1008.2
20260509015556 68 44 1.0 2.0 0.00 0.01 0.01 93 1008.2
20260509015054 68 44 0.0 3.0 0.00 0.01 0.01 92 1008.2
20260509014554 68 163 0.0 4.0 0.00 0.01 0.01 92 1008.2
20260509014053 68 163 2.0 6.0 0.00 0.01 0.01 92 1007.9
20260509013554 69 165 3.0 6.0 0.00 0.01 0.01 92 1007.8
20260509013055 69 147 2.0 4.0 0.00 0.01 0.01 91 1007.9
20260509012553 69 159 3.0 6.0 0.00 0.01 0.01 90 1007.8
20260509012053 70 190 3.0 6.0 0.00 0.01 0.01 90 1007.6
20260509011559 70 178 3.0 5.0 0.00 0.01 0.01 90 1007.6
20260509011053 70 192 3.0 6.0 0.00 0.01 0.01 89 1007.5
20260509010552 71 200 3.0 6.0 0.00 0.01 0.01 89 1007.4
20260509010052 71 178 3.0 6.0 0.00 0.01 0.01 89 1007.3
20260509005552 71 156 3.0 6.0 0.00 0.01 0.01 88 1007.4
20260509005053 72 177 4.0 8.0 0.00 0.01 0.01 88 1007.5
20260509004607 72 193 4.0 8.0 0.00 0.01 0.01 87 1007.5
20260509004051 72 201 4.0 7.0 0.00 0.01 0.01 87 1007.5
20260509003551 73 218 3.0 9.0 0.00 0.01 0.01 87 1007.5
20260509003051 73 186 5.0 11.0 0.00 0.01 0.01 85 1007.5
20260509002554 73 213 7.0 11.0 0.00 0.01 0.01 85 1007.3
20260509002050 74 195 3.0 9.0 0.00 0.01 0.01 86 1007.2
20260509001551 74 170 5.0 10.0 0.00 0.01 0.01 86 1007.2
20260509001050 73 173 7.0 10.0 0.00 0.01 0.01 86 1007.2
20260509000549 74 126 5.0 9.0 0.00 0.01 0.01 85 1007.2
20260509000049 74 134 5.0 9.0 0.00 0.01 0.01 85 1007.2
20260508235551 74 150 5.0 9.0 0.00 0.01 0.01 85 1007.3
20260508235047 74 166 4.0 9.0 0.00 0.01 0.01 86 1007.3
20260508234547 74 134 6.0 9.0 0.00 0.01 0.01 85 1007.4
20260508234048 74 109 6.0 10.0 0.00 0.01 0.01 87 1007.5
20260508233546 74 171 6.0 10.0 0.00 0.01 0.01 87 1007.6
20260508233046 73 173 3.0 7.0 0.00 0.01 0.01 87 1007.6
20260508232549 73 180 3.0 8.0 0.00 0.01 0.01 87 1007.6
20260508232044 73 178 5.0 8.0 0.00 0.01 0.01 86 1007.6
20260508231545 73 169 4.0 9.0 0.00 0.01 0.01 87 1007.5
20260508231045 73 199 4.0 7.0 0.00 0.01 0.01 86 1007.6
20260508230543 73 179 2.0 9.0 0.00 0.01 0.01 87 1007.7
20260508230044 73 189 5.0 8.0 0.00 0.01 0.01 87 1007.7
20260508225544 73 167 4.0 10.0 0.00 0.01 0.01 88 1007.6
20260508225044 73 222 6.0 11.0 0.00 0.01 0.01 87 1007.6
20260508224545 73 180 5.0 11.0 0.00 0.01 0.01 87 1007.7
20260508224043 73 192 6.0 11.0 0.00 0.01 0.01 87 1007.7
20260508223543 73 180 7.0 14.0 0.00 0.01 0.01 87 1007.7
20260508223048 73 205 7.0 14.0 0.00 0.01 0.01 86 1007.7
20260508222542 74 194 4.0 14.0 0.00 0.01 0.01 86 1007.8
20260508222043 74 176 8.0 13.0 0.00 0.01 0.01 85 1007.8
20260508221542 74 186 8.0 12.0 0.00 0.01 0.01 85 1007.8
20260508221043 74 160 6.0 12.0 0.00 0.01 0.01 87 1007.8
20260508220539 74 169 9.0 11.0 0.00 0.01 0.01 86 1007.9
20260508220039 73 206 7.0 11.0 0.00 0.01 0.01 87 1007.9
20260508215538 73 215 7.0 10.0 0.00 0.01 0.01 87 1008.0
20260508215038 73 220 5.0 8.0 0.00 0.01 0.01 87 1008.0
20260508214543 73 202 4.0 8.0 0.00 0.01 0.01 87 1008.1
20260508214036 73 168 5.0 8.0 0.00 0.01 0.01 87 1008.0
20260508213536 73 175 3.0 10.0 0.00 0.01 0.01 87 1008.1
20260508213037 73 196 5.0 10.0 0.00 0.01 0.01 86 1008.1
20260508212536 73 180 3.0 9.0 0.00 0.01 0.01 86 1008.1
20260508212036 74 164 5.0 8.0 0.00 0.01 0.01 85 1008.1
20260508211535 74 192 5.0 9.0 0.00 0.01 0.01 86 1008.2
20260508211034 74 227 4.0 10.0 0.00 0.01 0.01 85 1008.3
20260508210533 74 203 7.0 10.0 0.00 0.01 0.01 85 1008.3
20260508210033 74 221 5.0 10.0 0.00 0.01 0.01 85 1008.4
20260508205532 74 181 4.0 9.0 0.00 0.01 0.01 85 1008.4
20260508205031 74 173 6.0 11.0 0.00 0.01 0.01 85 1008.5
20260508204533 74 199 5.0 11.0 0.00 0.01 0.01 86 1008.5
20260508204035 74 188 6.0 11.0 0.00 0.01 0.01 86 1008.6
20260508203528 74 147 3.0 9.0 0.00 0.01 0.01 86 1008.6
20260508203028 74 186 5.0 9.0 0.00 0.01 0.01 86 1008.7
20260508202528 74 188 3.0 9.0 0.00 0.01 0.01 87 1008.8
20260508202027 73 167 4.0 9.0 0.00 0.01 0.01 86 1008.9
20260508201526 74 192 5.0 8.0 0.00 0.01 0.01 86 1009.0
20260508201028 74 186 4.0 8.0 0.00 0.01 0.01 86 1008.9
20260508200526 74 214 4.0 8.0 0.00 0.01 0.01 86 1008.9
20260508200026 74 196 3.0 7.0 0.00 0.01 0.01 86 1008.9
20260508195524 74 194 4.0 7.0 0.00 0.01 0.01 85 1009.1
20260508195025 74 167 3.0 6.0 0.00 0.01 0.01 86 1009.1
20260508194525 74 162 3.0 8.0 0.00 0.01 0.01 85 1009.0
20260508194023 74 154 4.0 9.0 0.00 0.01 0.01 86 1009.1
20260508193523 74 182 3.0 10.0 0.00 0.01 0.01 85 1009.1
20260508193023 74 187 7.0 10.0 0.00 0.01 0.01 86 1009.1
20260508192523 74 213 6.0 11.0 0.00 0.01 0.01 85 1009.3
20260508192023 74 209 6.0 9.0 0.00 0.01 0.01 85 1009.3
20260508191525 74 167 6.0 10.0 0.00 0.01 0.01 85 1009.3
20260508191022 74 200 6.0 10.0 0.00 0.01 0.01 85 1009.4
20260508190523 74 227 4.0 8.0 0.00 0.01 0.01 85 1009.4
20260508190026 75 189 3.0 10.0 0.00 0.01 0.01 84 1009.3
20260508185521 75 213 4.0 11.0 0.00 0.01 0.01 83 1009.3
20260508185021 75 191 6.0 12.0 0.00 0.01 0.01 85 1009.4
20260508184523 75 226 7.0 11.0 0.00 0.01 0.01 85 1009.4
20260508184018 75 213 7.0 12.0 0.00 0.01 0.01 86 1009.4
20260508183520 74 209 7.0 11.0 0.00 0.01 0.01 86 1009.5
20260508183016 73 191 7.0 16.0 0.00 0.01 0.01 89 1009.6
20260508182514 72 215 9.0 16.0 0.00 0.01 0.01 89 1009.7
20260508182012 72 200 7.0 10.0 0.00 0.01 0.01 90 1009.7
20260508181511 71 193 3.0 6.0 0.00 0.01 0.01 89 1009.8
20260508181010 71 208 4.0 6.0 0.00 0.01 0.01 90 1010.0
20260508180511 71 184 3.0 7.0 0.00 0.01 0.01 91 1010.1
20260508180016 71 215 3.0 8.0 0.00 0.01 0.01 90 1010.3
20260508175507 71 220 5.0 8.0 0.00 0.01 0.01 91 1010.5
20260508175007 70 237 3.0 8.0 0.00 0.01 0.01 92 1010.5
20260508174505 70 213 3.0 8.0 0.00 0.01 0.01 92 1010.6
20260508174004 69 219 4.0 8.0 0.00 0.01 0.01 92 1010.7
20260508173504 69 197 3.0 10.0 0.00 0.01 0.01 92 1010.8
20260508173002 69 231 5.0 10.0 0.00 0.01 0.01 91 1010.9
20260508172502 70 208 7.0 11.0 0.00 0.01 0.01 91 1010.9
20260508172002 70 215 5.0 11.0 0.00 0.01 0.01 92 1010.9
20260508171501 70 189 5.0 11.0 0.00 0.01 0.01 93 1011.0
20260508171059 69 169 6.0 11.0 0.00 0.01 0.01 94 1011.0
20260508170558 69 192 6.0 11.0 0.00 0.01 0.01 95 1011.0
20260508170058 69 195 3.0 10.0 0.00 0.01 0.01 95 1011.1
20260508165600 69 186 6.0 10.0 0.00 0.01 0.01 97 1011.2
20260508165057 68 160 4.0 9.0 0.00 0.01 0.01 99 1011.2
20260508164555 68 156 4.0 7.0 0.00 0.01 0.01 100 1011.2
20260508164053 67 179 1.0 4.0 0.00 0.01 0.01 100 1011.3
20260508163553 66 118 1.0 4.0 0.00 0.01 0.01 100 1011.5
20260508163051 66 88 2.0 6.0 0.00 0.01 0.01 100 1011.5
20260508162549 65 99 3.0 4.0 0.00 0.01 0.01 100 1011.7
20260508162048 64 134 1.0 4.0 0.00 0.01 0.01 100 1011.9
20260508161546 64 63 1.0 4.0 0.00 0.01 0.01 100 1012.0
20260508161047 64 69 0.0 4.0 0.00 0.01 0.01 100 1012.1
20260508160546 63 69 1.0 4.0 0.00 0.01 0.01 100 1012.1
20260508155542 63 79 1.0 4.0 0.00 0.01 0.01 100 1012.2
20260508155043 63 85 1.0 3.0 0.00 0.01 0.01 100 1012.2
20260508154542 63 98 1.0 3.0 0.00 0.01 0.01 100 1012.3
20260508154040 62 46 1.0 4.0 0.00 0.01 0.01 100 1012.2
20260508153540 62 42 2.0 3.0 0.00 0.01 0.01 100 1012.3
20260508153045 62 28 1.0 3.0 0.00 0.01 0.01 100 1012.5